Location: General Nathan Twining Observatory
(34.5931°N, 106.8201°W)
Time: 22:20:55
(UTC-06:00)

Daily predictions for brighter satellites

Satellite Brightness Start Highest point End
(mag) Time Altitude Azimuth Time Altitude Azimuth Time Altitude Azimuth
Meteor 2-1 Rocket 4.3 18:36:17 10° S 18:42:02 69° E 18:47:53 10° NNE
Cosmos 2218 Rocket 4.4 18:36:53 10° SSW 18:43:00 72° W 18:49:08 10° N
Ariane Rocket 3.3 18:38:13 10° S 18:43:18 79° WSW 18:48:26 10° NNW
Cosmos 921 Rocket 3.4 18:39:39 10° N 18:43:52 42° ENE 18:47:58 10° SE
Cosmos 1743 Rocket 3.6 18:41:42 10° N 18:46:07 83° E 18:50:32 10° S
SKYMED 2 4.0 18:42:08 10° NNE 18:46:15 40° E 18:50:19 10° S
Meteor 1-11 4.5 18:41:37 10° N 18:47:22 80° W 18:53:02 10° S
Cosmos 1484 Rocket 2.7 18:43:45 10° S 18:47:28 86° WSW 18:51:12 10° NNW
Cosmos 1339 Rocket 4.5 18:41:58 10° N 18:48:16 73° E 18:54:26 10° SSE
GP-B 3.1 18:45:08 10° N 18:49:34 70° E 18:53:59 10° S
Cosmos 1842 Rocket 4.0 18:47:19 10° SSW 18:51:47 71° W 18:56:13 10° N
FALCON 9 R/B 3.1 18:51:03 10° SW 18:52:21 14° SSW 18:53:52 10° SSE
Cosmos 1626 2.5 18:50:23 10° NNW 18:54:06 71° W 18:57:48 10° S
Cosmos 1727 Rocket 4.0 18:48:07 10° N 18:54:30 79° E 19:00:48 10° S
SL-16 R/B 4.3 18:51:13 10° NW 18:56:13 33° WSW 19:01:12 10° SSW
Cosmos 1908 3.2 18:53:28 10° S 18:57:21 69° E 19:01:14 10° NNE
Cosmos 1703 3.3 18:54:42 10° N 18:58:38 87° W 19:02:31 10° S
Molniya-1 3.3 19:02:37 10° S 19:03:57 22° ESE 19:04:19 20° E
MTI 4.4 19:01:18 10° N 19:04:28 60° WNW 19:07:36 10° SSW
Cosmos 1500 Rocket 3.7 19:01:52 10° N 19:06:11 77° W 19:10:29 10° S
Cosmos 44 3.7 19:02:16 10° SW 19:06:34 56° WNW 19:10:49 10° NNE
Cosmos 1269 Rocket 4.0 19:03:14 10° S 19:08:28 73° ESE 19:13:45 10° NNE
Aureole 2 Rocket 3.9 19:05:58 10° N 19:09:18 25° ENE 19:12:41 10° ESE
Cosmos 2237 4.2 19:03:59 10° NNW 19:09:44 75° ENE 19:15:25 10° SSE
Cosmos 2237 Rocket 3.7 19:08:06 10° NNE 19:11:39 17° NE 19:13:39 14° E
RESURS DK-1 3.3 19:08:55 10° NNW 19:12:55 51° WSW 19:16:54 10° S
Cosmos 2227 Rocket 3.0 19:10:55 10° SSE 19:15:37 28° ESE 19:20:22 10° NE
Iridium 4 Rocket 3.7 19:14:57 10° S 19:20:27 66° E 19:26:16 10° N
Cosmos 1300 3.2 19:17:47 10° SSE 19:21:18 36° E 19:24:49 10° NNE
SPOT 3 Rocket 3.5 19:16:19 10° SSE 19:21:28 69° ENE 19:26:39 10° N
Atlas Centaur 2 3.1 19:19:51 10° WSW 19:23:34 29° SSW 19:28:02 10° SE
Cosmos 1452 Rocket 4.1 19:18:37 10° NNW 19:23:47 60° WSW 19:28:56 10° S
Gbstr 26 Del rocket 4.1 19:20:48 10° NW 19:25:40 43° NE 19:29:43 19° E
Cosmos 494 Rocket 4.4 19:21:55 10° S 19:26:38 39° E 19:31:22 10° NE
Sich 1 3.6 19:25:03 10° NNE 19:29:05 35° E 19:33:07 10° SE
Cosmos 2360 Rocket 3.5 19:26:40 10° NW 19:31:59 43° WSW 19:37:17 10° S
COSMO-SKYMED 1 3.5 19:30:04 10° N 19:34:16 51° WNW 19:38:28 10° SSW
Cosmos 2098 Rocket 3.5 19:32:14 10° S 19:36:41 84° W 19:42:26 10° N
BREEZE-M R/B 2.1 19:37:23 10° SW 19:39:50 73° NW 19:41:04 32° NE
CZ-4C R/B 3.0 19:35:01 10° SW 19:39:55 47° NW 19:45:28 10° NNE
FENGYUN 3A 3.6 19:35:30 10° SSE 19:40:52 73° ENE 19:46:17 10° N
PSLV R/B 3.6 19:40:25 10° W 19:43:28 49° NNW 19:44:12 38° NNE
Hubble Space Telescope 2.1 19:40:44 10° SW 19:44:16 28° S 19:45:28 24° SE
Cosmos 1805 Rocket 3.5 19:40:57 10° N 19:45:22 89° ENE 19:49:48 10° S
Cosmos 2219 4.1 19:40:54 10° SW 19:46:27 51° WNW 19:52:02 10° N
COSMOS 2428 2.8 19:40:49 10° NNW 19:46:31 80° WSW 19:52:11 10° SSE
Cosmos 2228 Rocket 4.0 19:43:09 10° SSE 19:46:04 29° ESE 19:46:04 29° ESE
Meteor 2-10 3.8 19:44:10 10° S 19:49:11 81° E 19:54:18 10° N
Cosmos 2333 Rocket 2.3 19:43:47 10° NNW 19:49:25 53° ENE 19:53:15 20° SE
Cosmos 1535 Rocket 4.5 19:44:10 10° S 19:50:17 82° W 19:56:25 10° N
Cosmos 1726 3.2 19:48:53 10° SSW 19:52:26 44° W 19:55:59 10° N
Cosmos 2297 Rocket 2.3 19:47:17 10° S 19:52:42 50° ESE 19:56:00 23° NE
Cosmos 1666 Rocket 3.4 19:50:29 10° N 19:54:48 70° E 19:59:05 10° SSE
Cosmos 1328 Rocket 3.6 19:50:47 10° SSE 19:55:02 51° E 19:57:04 28° NNE
Cosmos 1633 Rocket 3.0 19:55:02 10° N 19:59:26 64° E 20:02:06 23° SSE
ASTRO E2 4.5 19:58:19 10° WSW 20:01:34 24° SSW 20:02:51 20° S
Cosmos 2251 Rocket 3.4 19:57:24 10° S 20:02:36 65° ESE 20:06:05 22° NNE
Cosmos 2082 3.7 19:57:34 10° S 20:03:11 61° ESE 20:06:19 27° NE
DELTA 2 R/B (1) 4.2 20:06:13 10° WNW 20:11:37 50° SSW 20:13:51 32° SSE
FengYun 1-2 T 4.1 20:10:01 10° SSE 20:15:31 87° ENE 20:21:02 10° NNW
ALOS 3.5 20:12:14 10° S 20:16:37 41° W 20:21:03 10° NNW
Meteor 2-2 Rocket 4.3 20:12:57 10° SSW 20:18:39 76° W 20:24:18 10° N
Cosmos 2084 4.0 20:14:49 10° NNW 20:17:29 43° NNW 20:17:29 43° NNW
Cosmos 2219 Rocket 2.4 20:13:06 10° NNW 20:18:41 70° WSW 20:23:28 14° S
Delta 2 Rocket 3.9 20:15:41 10° W 20:18:40 45° WSW 20:18:40 45° WSW
OAO 1 Rocket 4.3 20:14:43 10° W 20:20:02 84° S 20:20:32 73° ESE
Thor Agena Rocket 4.4 20:20:20 10° N 20:25:11 47° WNW 20:30:00 10° SW
Centaur AC-112 4.2 20:23:02 10° WSW 20:26:26 21° SSW 20:26:26 21° SSW
Cosmos 1331 Rocket 4.0 20:27:25 10° NNW 20:32:39 79° WSW 20:32:59 75° SSW
Meteor 1-27 4.1 20:30:43 10° S 20:36:24 90° ESE 20:42:14 10° N
USA 267 3.1 20:35:57 67° E 20:36:29 70° SE 20:42:59 10° SW
H-2A R/B 4.5 20:42:31 32° WNW 20:42:31 32° WNW 20:45:26 10° NNW
MOS 1-B Rocket 4.2 20:56:56 59° NNW 20:56:56 59° NNW 21:01:52 10° NNW
Cosmos 2237 Rocket 2.6 20:50:31 10° NNW 20:55:32 60° WNW 20:55:32 60° WNW
Cosmos 2227 Rocket 3.7 20:54:24 10° SW 20:59:29 34° WNW 21:03:08 17° N
SL-16 R/B 4.1 21:03:31 10° NNW 21:05:09 20° N 21:05:09 20° N
Cosmos 2297 Rocket 4.4 21:32:52 10° WSW 21:37:00 20° WNW 21:37:55 20° NW
